Sanford, ME

8:44 AM EDT on August 27, 2016 (GMT -0400)
Sanford Regional

Weather History for KSFM - September, 2012

Change the Weather History Date:

Friday, September 14, 2012

  Actual Average Record
Temperature  
Mean Temperature 65 °F -  
Max Temperature 80 °F 70 °F 84 °F (2005)
Min Temperature 50 °F 48 °F 41 °F (2004)
Growing Degree Days 15 (Base 50)    
Moisture  
Dew Point 58 °F    
Average Humidity 78    
Maximum Humidity 94    
Minimum Humidity 51    
Precipitation  
Precipitation 0.00 in - - ()
Sea Level Pressure  
Sea Level Pressure 30.15 in    
Wind  
Wind Speed 2 mph (South)    
Max Wind Speed 8 mph    
Max Gust Speed -    
Visibility 8 miles    
Events      
Averages and records for this station are not official NWS values.
T = Trace of Precipitation, MM = Missing Value Source: NWS Daily Summary

Daily Weather History Graph

Daily Weather History Graph

Search for Another Location

Airport or City:

Trip Planner

Search our weather history database for the weather conditions in past years. The results will help you decide how hot, cold, wet, or windy it might be!

Date:

Astronomy

Sep. 14, 2012 Rise Set
Actual Time 6:21 AM EDT 6:53 PM EDT
Civil Twilight 5:52 AM EDT 7:22 PM EDT
Nautical Twilight 5:18 AM EDT 7:56 PM EDT
Astronomical Twilight 4:43 AM EDT 8:31 PM EDT
Moon 4:41 AM EDT (9/14) 5:49 PM EDT (9/14)
Length of Visible Light 13h 29m
Length of Day
12h 32m
Waning Crescent, 3% of the Moon is Illuminated
Sep 14
Waning Crescent
Sep 15
New
Sep 22
First Quarter
Sep 29
Full
Oct 8
Last Quarter

Hourly Weather History & Observations

Time (EDT) Temp. Heat Index Dew Point Humidity Pressure Visibility Wind Dir Wind Speed Gust Speed Precip Events Conditions
12:15 AM 55.4 °F - 53.6 °F 94% 30.23 in 10.0 mi Calm Calm - N/A   Clear
12:35 AM 60.8 °F - 57.2 °F 88% 30.23 in 7.0 mi South 4.6 mph - N/A   Clear
12:55 AM 60.8 °F - 57.2 °F 88% 30.23 in 10.0 mi WSW 3.5 mph - N/A   Clear
1:15 AM 60.8 °F - 57.2 °F 88% 30.23 in 10.0 mi SSW 3.5 mph - N/A   Clear
1:35 AM 57.2 °F - 55.4 °F 94% 30.23 in 10.0 mi SW 3.5 mph - N/A   Clear
1:55 AM 57.2 °F - 55.4 °F 94% 30.22 in 5.0 mi SSW 3.5 mph - N/A   Clear
2:35 AM 53.6 °F - 51.8 °F 94% 30.22 in 3.0 mi SSW 4.6 mph - N/A   Clear
2:55 AM 55.4 °F - 51.8 °F 88% 30.22 in 10.0 mi Calm Calm - N/A   Clear
3:15 AM 53.6 °F - 51.8 °F 94% 30.21 in 4.0 mi Calm Calm - N/A   Clear
3:35 AM 57.2 °F - 55.4 °F 94% 30.21 in 1.0 mi South 4.6 mph - N/A   Clear
3:55 AM 55.4 °F - 51.8 °F 88% 30.21 in 10.0 mi South 3.5 mph - N/A   Clear
4:15 AM 53.6 °F - 51.8 °F 94% 30.21 in 10.0 mi SSW 3.5 mph - N/A   Clear
4:35 AM 53.6 °F - 51.8 °F 94% 30.20 in 5.0 mi Calm Calm - N/A   Clear
4:55 AM 53.6 °F - 51.8 °F 94% 30.20 in 3.0 mi Calm Calm - N/A   Clear
5:15 AM 51.8 °F - 50.0 °F 94% 30.21 in 4.0 mi Calm Calm - N/A   Clear
5:35 AM 51.8 °F - 48.2 °F 88% 30.21 in 5.0 mi Calm Calm - N/A   Clear
5:55 AM 51.8 °F - 48.2 °F 88% 30.21 in 2.5 mi Calm Calm - N/A   Clear
6:15 AM 51.8 °F - 48.2 °F 88% 30.21 in 4.0 mi Calm Calm - N/A   Clear
6:35 AM 50.0 °F - 46.4 °F 87% 30.21 in 1.8 mi Calm Calm - N/A   Clear
6:55 AM 51.8 °F - 48.2 °F 88% 30.21 in 4.0 mi Calm Calm - N/A   Clear
7:15 AM 53.6 °F - 50.0 °F 88% 30.21 in 3.0 mi Calm Calm - N/A   Clear
7:35 AM 55.4 °F - 53.6 °F 94% 30.21 in 5.0 mi Calm Calm - N/A   Clear
7:55 AM 59.0 °F - 55.4 °F 88% 30.21 in 10.0 mi Calm Calm - N/A   Clear
8:15 AM 62.6 °F - 57.2 °F 82% 30.21 in 10.0 mi Calm Calm - N/A   Clear
8:35 AM 64.4 °F - 57.2 °F 77% 30.21 in 10.0 mi Calm Calm - N/A   Clear
8:55 AM 64.4 °F - 59.0 °F 83% 30.21 in 10.0 mi Calm Calm - N/A   Clear
9:15 AM 66.2 °F - 59.0 °F 78% 30.21 in 10.0 mi NNE 3.5 mph - N/A   Clear
9:35 AM 69.8 °F - 59.0 °F 68% 30.20 in 10.0 mi Calm Calm - N/A   Clear
9:55 AM 69.8 °F - 60.8 °F 73% 30.20 in 5.0 mi Calm Calm - N/A   Clear
10:15 AM 71.6 °F - 60.8 °F 69% 30.20 in 10.0 mi East 3.5 mph - N/A   Clear
10:35 AM 73.4 °F - 60.8 °F 65% 30.19 in 10.0 mi Calm Calm - N/A   Clear
10:55 AM 75.2 °F - 60.8 °F 61% 30.19 in 10.0 mi East 3.5 mph - N/A   Clear
11:15 AM 75.2 °F - 62.6 °F 65% 30.19 in 10.0 mi South 3.5 mph - N/A   Clear
11:35 AM 77.0 °F - 62.6 °F 61% 30.18 in 10.0 mi Calm Calm - N/A   Clear
11:55 AM 80.6 °F 81.8 °F 62.6 °F 54% 30.17 in 10.0 mi WSW 5.8 mph - N/A   Clear
12:15 PM 80.6 °F 81.8 °F 62.6 °F 54% 30.17 in 10.0 mi South 3.5 mph - N/A   Clear
12:35 PM 80.6 °F 81.8 °F 62.6 °F 54% 30.16 in 10.0 mi SSE 3.5 mph - N/A   Clear
12:55 PM 80.6 °F 81.5 °F 60.8 °F 51% 30.15 in 10.0 mi South 8.1 mph - N/A   Clear
1:15 PM 80.6 °F 81.5 °F 60.8 °F 51% 30.15 in 5.0 mi South 5.8 mph - N/A   Clear
1:55 PM 80.6 °F 81.8 °F 62.6 °F 54% 30.14 in 7.0 mi SE 8.1 mph - N/A   Clear
2:15 PM 78.8 °F - 62.6 °F 57% 30.13 in 3.0 mi ESE 6.9 mph - N/A   Clear
2:35 PM 78.8 °F - 60.8 °F 54% 30.13 in 10.0 mi ESE 4.6 mph - N/A   Clear
2:55 PM 78.8 °F - 62.6 °F 57% 30.12 in 10.0 mi SE 5.8 mph - N/A   Clear
3:15 PM 78.8 °F - 62.6 °F 57% 30.12 in 9.0 mi ESE 6.9 mph - N/A   Clear
3:35 PM 78.8 °F - 62.6 °F 57% 30.11 in 10.0 mi East 5.8 mph - N/A   Clear
3:55 PM 78.8 °F - 64.4 °F 61% 30.11 in 4.0 mi ESE 5.8 mph - N/A   Clear
4:15 PM 77.0 °F - 64.4 °F 65% 30.10 in 10.0 mi ESE 6.9 mph - N/A   Clear
4:35 PM 77.0 °F - 62.6 °F 61% 30.10 in 10.0 mi ESE 6.9 mph - N/A   Clear
4:55 PM 77.0 °F - 64.4 °F 65% 30.10 in 10.0 mi SE 4.6 mph - N/A   Clear
5:15 PM 75.2 °F - 64.4 °F 69% 30.10 in 10.0 mi SSE 4.6 mph - N/A   Clear
5:55 PM 73.4 °F - 62.6 °F 69% 30.10 in 10.0 mi SSE 4.6 mph - N/A   Clear
6:15 PM 73.4 °F - 62.6 °F 69% 30.09 in 10.0 mi SE 3.5 mph - N/A   Clear
6:35 PM 71.6 °F - 62.6 °F 73% 30.09 in 10.0 mi Calm Calm - N/A   Clear
6:55 PM 69.8 °F - 62.6 °F 78% 30.08 in 10.0 mi Calm Calm - N/A   Clear
7:15 PM 66.2 °F - 62.6 °F 88% 30.08 in 10.0 mi Calm Calm - N/A   Clear
7:35 PM 64.4 °F - 60.8 °F 88% 30.08 in 10.0 mi Calm Calm - N/A   Clear
7:55 PM 62.6 °F - 60.8 °F 94% 30.08 in 10.0 mi Calm Calm - N/A   Clear
8:15 PM 62.6 °F - 60.8 °F 94% 30.08 in 8.0 mi Calm Calm - N/A   Clear
8:35 PM 60.8 °F - 57.2 °F 88% 30.07 in 5.0 mi Calm Calm - N/A   Clear
8:55 PM 60.8 °F - 57.2 °F 88% 30.06 in 10.0 mi Calm Calm - N/A   Clear
9:15 PM 59.0 °F - 55.4 °F 88% 30.06 in 9.0 mi Calm Calm - N/A   Clear
9:35 PM 59.0 °F - 55.4 °F 88% 30.06 in 10.0 mi SW 4.6 mph - N/A   Clear
9:55 PM 60.8 °F - 57.2 °F 88% 30.06 in 10.0 mi SSW 3.5 mph - N/A   Clear
10:15 PM 62.6 °F - 57.2 °F 82% 30.05 in 10.0 mi SSW 4.6 mph - N/A   Clear
10:35 PM 62.6 °F - 57.2 °F 82% 30.05 in 10.0 mi SW 4.6 mph - N/A   Clear
10:55 PM 60.8 °F - 57.2 °F 88% 30.05 in 10.0 mi SW 3.5 mph - N/A   Clear
11:15 PM 60.8 °F - 57.2 °F 88% 30.05 in 10.0 mi SSW 4.6 mph - N/A   Clear
11:35 PM 62.6 °F - 59.0 °F 88% 30.05 in 10.0 mi SSW 4.6 mph - N/A   Clear
11:55 PM 62.6 °F - 60.8 °F 94% 30.04 in 10.0 mi SSW 3.5 mph - N/A   Clear